contact:dominique.lefevre@mio.osupytheas.fr, maurice.libes@osupytheas.fr
Project:EMSO Ligure-ouest http://www.emso-fr.org/EMSO-France
Sensor Aquadopp, line 13 Serial AQD14315 
DOI : "https://doi.org/10.17882/74513; https://doi.org/10.17882/83244" 
Title:EMSO Ligure Ouest : Data ligne ALBATROSS capteur AQUADOPP - deploiement 2021
Id,Date,Profondeur,Latitude,Longitude,X_East,Y_North,Z_Up,Amplitude_X,Amplitude_Y,Amplitude_Z,Batterie,SoundSpeed,Heading,Pitch,Roll,Pressure,Temperature,Speed,Direction
, , m, degrees North, degrees East, m.s-1, m.s-1,m.s-1, 1, 1, 1, Volt, m.s-1, degree, degree, degree, dbar, degree_C, m.s-1, degree
13,2021-11-06T22:00:00,2400.0,42.79,6.0312,0.049,-0.004,-0.011,57.0,53.0,54.0,12.7,1504.8,46.8,-0.1,-0.3,2394.878,13.33,0.049,94.7
13,2021-11-06T22:30:00,2400.0,42.79,6.0312,0.031,-0.01,-0.012,62.0,54.0,57.0,12.7,1504.8,49.3,0.0,-0.2,2394.842,13.33,0.032,107.9
13,2021-11-06T23:00:00,2400.0,42.79,6.0312,0.039,-0.003,0.002,61.0,53.0,55.0,12.7,1504.8,50.4,-0.1,-0.2,2394.837,13.33,0.039,94.4
13,2021-11-06T23:30:00,2400.0,42.79,6.0312,0.034,0.003,-0.038,62.0,53.0,57.0,12.7,1504.8,51.3,-0.2,-0.2,2394.784,13.33,0.034,85.0
13,2021-11-07T00:00:00,2400.0,42.79,6.0312,0.033,-0.005,0.0,60.0,53.0,55.0,12.7,1504.8,52.6,-0.4,-0.3,2394.753,13.33,0.033,98.6
13,2021-11-07T00:30:00,2400.0,42.79,6.0312,0.059,-0.005,-0.003,61.0,53.0,56.0,12.7,1504.8,52.2,0.0,-0.3,2394.753,13.33,0.059,94.8
13,2021-11-07T01:00:00,2400.0,42.79,6.0312,0.053,0.0,0.006,59.0,53.0,54.0,12.7,1504.8,54.1,-0.5,-0.3,2394.735,13.33,0.053,90.0
13,2021-11-07T01:30:00,2400.0,42.79,6.0312,0.05,-0.004,-0.035,59.0,52.0,57.0,12.6,1504.8,56.8,-0.8,-0.4,2394.693,13.33,0.05,94.6
13,2021-11-07T02:00:00,2400.0,42.79,6.0312,0.029,0.0,-0.026,62.0,54.0,56.0,12.7,1504.8,58.6,-0.7,-0.3,2394.75,13.33,0.028,90.0
13,2021-11-07T02:30:00,2400.0,42.79,6.0312,0.023,-0.014,0.021,60.0,54.0,55.0,12.6,1504.8,57.8,-0.4,-0.3,2394.685,13.33,0.026,121.3
13,2021-11-07T03:00:00,2400.0,42.79,6.0312,0.043,-0.006,-0.011,59.0,53.0,53.0,12.7,1504.8,57.3,-0.3,-0.3,2394.68,13.33,0.043,97.9
13,2021-11-07T03:30:00,2400.0,42.79,6.0312,0.044,0.003,-0.005,61.0,53.0,55.0,12.6,1504.8,56.4,-0.1,-0.3,2394.691,13.33,0.044,86.1
13,2021-11-07T04:00:00,2400.0,42.79,6.0312,0.023,-0.023,0.014,60.0,53.0,56.0,12.7,1504.8,58.3,0.0,-0.2,2394.679,13.33,0.032,135.0
13,2021-11-07T04:30:00,2400.0,42.79,6.0312,0.026,0.017,-0.01,59.0,53.0,55.0,12.6,1504.8,53.9,-0.1,-0.2,2394.715,13.33,0.031,56.8
13,2021-11-07T05:00:00,2400.0,42.79,6.0312,0.017,-0.015,0.0,62.0,54.0,56.0,12.7,1504.8,50.5,-0.2,-0.3,2394.781,13.33,0.022,131.4
13,2021-11-07T05:30:00,2400.0,42.79,6.0312,0.032,-0.017,0.031,59.0,53.0,55.0,12.7,1504.8,50.2,-0.3,-0.2,2394.789,13.33,0.036,118.0
13,2021-11-07T06:00:00,2400.0,42.79,6.0312,0.039,0.004,0.021,60.0,51.0,56.0,12.6,1504.8,46.0,-0.1,-0.3,2394.847,13.33,0.039,84.1
13,2021-11-07T06:30:00,2400.0,42.79,6.0312,0.007,0.004,0.037,59.0,55.0,59.0,12.7,1504.8,45.7,-0.2,-0.2,2394.843,13.33,0.008,60.3
13,2021-11-07T07:00:00,2400.0,42.79,6.0312,0.023,-0.002,-0.008,62.0,54.0,57.0,12.7,1504.8,41.5,-0.2,-0.3,2394.894,13.33,0.023,95.0
13,2021-11-07T07:30:00,2400.0,42.79,6.0312,0.031,-0.003,-0.015,59.0,51.0,56.0,12.7,1504.8,40.9,-0.2,-0.3,2394.897,13.33,0.031,95.5
13,2021-11-07T08:00:00,2400.0,42.79,6.0312,0.033,-0.004,-0.015,65.0,54.0,55.0,12.7,1504.8,45.3,-0.2,-0.3,2394.926,13.33,0.033,96.9
13,2021-11-07T08:30:00,2400.0,42.79,6.0312,0.022,-0.016,0.027,59.0,52.0,57.0,12.7,1504.8,41.8,-0.3,-0.3,2394.91,13.33,0.027,126.0
13,2021-11-07T09:00:00,2400.0,42.79,6.0312,0.041,0.008,0.008,58.0,54.0,55.0,12.7,1504.8,42.0,-0.1,-0.3,2394.978,13.33,0.041,79.0
13,2021-11-07T09:30:00,2400.0,42.79,6.0312,0.052,-0.011,-0.022,58.0,54.0,56.0,12.7,1504.8,42.6,0.0,-0.3,2394.973,13.33,0.053,101.9
13,2021-11-07T10:00:00,2400.0,42.79,6.0312,0.045,-0.007,0.016,55.0,55.0,54.0,12.6,1504.8,41.3,-0.2,-0.3,2394.916,13.33,0.045,98.8
13,2021-11-07T10:30:00,2400.0,42.79,6.0312,0.06,0.003,0.013,59.0,55.0,55.0,12.7,1504.8,39.5,-0.3,-0.3,2394.901,13.33,0.06,87.1
13,2021-11-07T11:00:00,2400.0,42.79,6.0312,0.031,0.0,0.02,62.0,55.0,58.0,12.6,1504.8,42.5,-0.3,-0.4,2394.865,13.33,0.03,90.0
13,2021-11-07T11:30:00,2400.0,42.79,6.0312,0.046,-0.016,-0.006,60.0,53.0,57.0,12.6,1504.8,41.8,0.0,-0.2,2394.824,13.33,0.048,109.2
13,2021-11-07T12:00:00,2400.0,42.79,6.0312,0.032,-0.004,0.002,59.0,52.0,53.0,12.6,1504.8,44.3,-0.4,-0.4,2394.881,13.33,0.032,97.1
13,2021-11-07T12:30:00,2400.0,42.79,6.0312,0.053,-0.002,-0.008,56.0,52.0,55.0,12.6,1504.8,45.3,-0.1,-0.2,2394.848,13.33,0.053,92.2
13,2021-11-07T13:00:00,2400.0,42.79,6.0312,0.035,-0.006,-0.031,59.0,54.0,56.0,12.7,1504.8,45.7,-0.3,-0.4,2394.801,13.33,0.035,99.7
13,2021-11-07T13:30:00,2400.0,42.79,6.0312,0.05,-0.016,-0.01,58.0,52.0,55.0,12.6,1504.8,52.7,-0.4,-0.3,2394.769,13.33,0.052,107.7
13,2021-11-07T14:00:00,2400.0,42.79,6.0312,0.069,-0.013,0.004,59.0,55.0,56.0,12.7,1504.8,49.9,-0.2,-0.3,2394.778,13.33,0.07,100.7
13,2021-11-07T14:30:00,2400.0,42.79,6.0312,0.038,-0.017,0.0,59.0,53.0,57.0,12.7,1504.8,50.7,0.2,-0.2,2394.766,13.33,0.041,114.1
13,2021-11-07T15:00:00,2400.0,42.79,6.0312,0.02,-0.015,-0.004,57.0,55.0,55.0,12.7,1504.8,52.9,-0.2,-0.2,2394.72,13.33,0.025,126.9
13,2021-11-07T15:30:00,2400.0,42.79,6.0312,0.047,-0.015,-0.028,58.0,53.0,56.0,12.7,1504.8,55.7,-0.3,-0.3,2394.699,13.33,0.049,107.7
13,2021-11-07T16:00:00,2400.0,42.79,6.0312,0.043,-0.014,-0.004,57.0,51.0,55.0,12.6,1504.8,58.4,-0.1,-0.4,2394.719,13.33,0.045,108.0
13,2021-11-07T16:30:00,2400.0,42.79,6.0312,0.043,-0.03,0.008,58.0,52.0,55.0,12.7,1504.8,59.5,-0.3,-0.1,2394.7,13.33,0.052,124.9
13,2021-11-07T17:00:00,2400.0,42.79,6.0312,0.022,-0.023,0.0,61.0,53.0,54.0,12.7,1504.8,63.0,-0.7,-0.4,2394.738,13.33,0.031,136.3
13,2021-11-07T17:30:00,2400.0,42.79,6.0312,0.051,-0.008,0.022,59.0,52.0,57.0,12.7,1504.8,65.1,0.0,-0.3,2394.727,13.33,0.051,98.9
13,2021-11-07T18:00:00,2400.0,42.79,6.0312,0.031,-0.018,-0.023,59.0,53.0,55.0,12.7,1504.8,61.4,-0.2,-0.2,2394.787,13.33,0.035,120.1
13,2021-11-07T18:30:00,2400.0,42.79,6.0312,0.034,0.003,-0.012,58.0,52.0,53.0,12.6,1504.8,65.7,-0.2,-0.3,2394.824,13.33,0.034,85.0
13,2021-11-07T19:00:00,2400.0,42.79,6.0312,0.012,-0.025,0.011,57.0,53.0,55.0,12.6,1504.8,61.7,-0.1,-0.3,2394.826,13.33,0.027,154.4
13,2021-11-07T19:30:00,2400.0,42.79,6.0312,0.026,0.003,-0.019,56.0,50.0,55.0,12.7,1504.8,61.7,0.1,-0.2,2394.86,13.33,0.026,83.4
13,2021-11-07T20:00:00,2400.0,42.79,6.0312,0.007,-0.02,-0.005,61.0,53.0,55.0,12.6,1504.8,65.0,-0.1,-0.3,2394.866,13.33,0.021,160.7
13,2021-11-07T20:30:00,2400.0,42.79,6.0312,0.012,-0.006,0.01,56.0,51.0,53.0,12.6,1504.8,70.2,0.1,-0.4,2394.865,13.33,0.013,116.6
13,2021-11-07T21:00:00,2400.0,42.79,6.0312,0.031,-0.013,0.021,61.0,52.0,57.0,12.7,1504.8,73.5,-0.1,-0.3,2394.871,13.33,0.033,112.7
13,2021-11-07T21:30:00,2400.0,42.79,6.0312,0.016,-0.004,-0.016,60.0,53.0,56.0,12.6,1504.8,74.5,-0.1,-0.3,2394.788,13.33,0.016,104.0
